Regional Weather Roundup
Issued by NWS

Home | Current Version | Previous Version | Graphics & Text | Print | Product List | Glossary On
Versions: 1 2 3 4 5 6 7 8 9 10 11 12 13 14 15 16 17 18 19 20 21 22 23 24 25 26 27 28 29 30 31 32 33 34 35 36 37 38 39 40 41 42 43 44 45 46 47 48 49 50
000
ASUS45 KTFX 262304
RWRMT
MONTANA HOURLY WEATHER ROUNDUP
NATIONAL WEATHER SERVICE GREAT FALLS MT
404 PM MST MON JAN 26 2015

NOTE: "FAIR" INDICATES FEW OR NO CLOUDS BELOW 12000 FEET WITH NO
SIGNIFICANT WEATHER AND/OR OBSTRUCTIONS TO VISIBILITY.

* THESE STATIONS ARE NOT UNDER NWS QUALITY CONTROL. THEY DO NOT
   REPORT WEATHER SUCH AS PRECIPITATION OR FOG.

MTZ001>007-043-270000-
WEST OF THE DIVIDE
CITY           SKY/WX    TMP DP  RH WIND       PRES   REMARKS
KALISPELL      SUNNY     45  34  65 CALM      30.00S
MISSOULA       SUNNY     41  32  70 W5        30.08S
BUTTE          SUNNY     52  30  43 W5        30.12S
MULLAN PASS    SUNNY     48  27  44 VRB5      30.09F
* ANACONDA     SUNNY     63  27  26 S16        N/A
* ESSEX        N/A       43  32  65 SE4        N/A
* LINCOLN      N/A       60  28  30 SE3        N/A
* LOOKOUT PASS N/A       55  30  39 NW2G9      N/A
* POLSON       N/A       50  31  48 SE2        N/A
* RONAN APT    SUNNY     41  41 100 VRB6       N/A
* SEELEY LAKE  N/A       59  28  31 S2         N/A
* THOMP F APT  SUNNY     49  34  56 SW1        N/A
* YAAK HILL    N/A       37  34  89 NW1        N/A
$$

MTZ008-052>055-270000-
SOUTHWEST MONTANA
CITY           SKY/WX    TMP DP  RH WIND       PRES   REMARKS
BOZEMAN        SUNNY     48  34  59 CALM      30.09F
DILLON         SUNNY     54  30  40 SW16      30.13F
* W YELLOWSTON SUNNY     39  28  65 NW1        N/A
* THREE FORKS  SUNNY     55  36  49 N/A        N/A
* BOULDER HILL N/A       52  26  36 S11        N/A
* MONIDA PASS  N/A       38  33  82 E10        N/A   WCI  31
* RAYNOLDS PAS N/A       39  21  48 SE24       N/A   WCI  28
* WHITEHALL    N/A       62  29  29 SW13       N/A
* WISE RIVER   N/A       52  31  45 W2         N/A
$$

MTZ009>010-012-014-046-048-049-054-270000-
EAST SLOPES AND CENTRAL MONTANA
CITY           SKY/WX    TMP DP  RH WIND       PRES   REMARKS
CUT BANK       PTCLDY    61  30  31 W23G31    29.90F
GREAT FALLS    PTCLDY    64  30  28 SW20      29.93F
HELENA         SUNNY     54  34  47 N3        30.03F
MALMSTROM AFB  PTCLDY    64  32  30 SW15      29.94F
* DEARBORN     N/A       61  29  30 S14G19     N/A
* EAST GLACIER N/A       57  25  29 NW20G26    N/A
* MONARCH      N/A       61  20  20 SW9G17     N/A
* PENDROY      N/A       65  27  24 W13G18     N/A
* ROGERS PASS  N/A       55  23  29 SE13G22    N/A
* SWEET GRASS  N/A       61  30  31 SW22G28    N/A
$$

MTZ011-013-016-021-035-040-045-047-050-051-270000-
NORTH CENTRAL MONTANA
CITY           SKY/WX    TMP DP  RH WIND       PRES   REMARKS
HAVRE          PTSUNNY   54  37  53 SW16      29.86F
LEWISTOWN      PTCLDY    54  30  40 SW14      29.98F
* N BAR RANCH  SUNNY     66  23  19 W3        30.00S
* CHESTER      N/A       54  36  51 N/A        N/A
* DENTON       N/A       66  32  28 W11        N/A
* GEYSER       N/A       68  24  19 W20G25     N/A
* JUDITH GAP   N/A       62  30  30 SW16       N/A
* LOMA         N/A       56  39  53 N/A        N/A
$$

MTZ017>020-022>027-061-062-270000-
NORTHEAST MONTANA
CITY           SKY/WX    TMP DP  RH WIND       PRES   REMARKS
GLASGOW        PTCLDY    50  37  61 CALM      29.89F
GLENDIVE       PTCLDY    55  37  51 SW8       29.93F
JORDAN         PTSUNNY   46  37  71 NW6       29.91F
SIDNEY         PTSUNNY   48  36  63 S5        29.94S
WOLF POINT     CLOUDY    50  37  61 CALM      29.90F
* BEAVER HILL  N/A       51  37  59 S6         N/A
* CIRCLE       N/A       56  42  60 W2         N/A
* LINDSAY DVD  N/A       55  34  45 W9         N/A
* NAVAJO       N/A       42  33  71 SW8        N/A
* SACO         N/A       52  38  59 S9         N/A
$$

MTZ028>042-056>058-270000-
SOUTHCENTRAL AND SOUTHEAST MONTANA
CITY           SKY/WX    TMP DP  RH WIND       PRES   REMARKS
BAKER          PTCLDY    54  37  53 SW8       29.95F
BILLINGS       PTCLDY    57  28  33 SW24G31   30.02F
LIVINGSTON     SUNNY     63  27  26 W17G32    30.05F
MILES CITY     PTCLDY    54  36  51 NW3       29.94F
* LAUREL APT   SUNNY     59  28  31 S15G21     N/A
* ROUNDUP APT  PTSUNNY   68  28  22 S13        N/A
* ALZADA       N/A       61  34  36 SW6        N/A
* HYSHAM       N/A       56  27  33 W6G11      N/A
* LAME DEER    N/A       59  27  29 SW12G19    N/A
* REED POINT   N/A       57  35  44 SE3        N/A
* ROSCOE HILL  N/A       65  24  21 SE1G6      N/A
$$

REGIONAL REPORTS...DAKOTAS
CITY           SKY/WX    TMP DP  RH WIND       PRES   REMARKS
WILLISTON      PTSUNNY   46  32  58 S5        29.92S
DICKINSON      PTSUNNY   50  34  54 SW7       29.92F
CROSBY         SUNNY     39  36  89 CALM      29.92S
WATFORD CITY   SUNNY     43  34  71 SW6       29.91S
BISMARCK       PTCLDY    45  32  60 NE5       29.97S
GRAND FORKS    SUNNY     30  25  82 N9        29.95R WCI  22
FARGO          SUNNY     34  28  79 N16       29.95R WCI  24
BUFFALO SD     SUNNY     61  34  36 W9        29.92S
RAPID CITY     SUNNY     63  30  29 N8        30.01S
$$

REGIONAL REPORTS...WYOMING/IDAHO/WASHINGTON
CITY           SKY/WX    TMP DP  RH WIND       PRES   REMARKS
GILLETTE       SUNNY     59  36  42 SW9       30.07F
SHERIDAN       SUNNY     61  36  39 S5        30.04F
CODY           PTCLDY    43  34  71 CALM      30.14F
YELLOWSTONE LA PTCLDY    36  23  59 CALM      30.34F
SALMON         CLOUDY   N/A N/A N/A CALM      30.24F VSB 1
MULLAN PASS    SUNNY     48  27  44 VRB5      30.09S
SAND POINT     FOG       36  36 100 CALM      30.04S VSB M1/4
SPOKANE        FOG       48  41  77 NE3       30.01S
$$

REGIONAL REPORTS...SASKATCHEWAN
CITY           SKY/WX    TMP DP  RH WIND       PRES   REMARKS
REGINA         PTSUNNY   36  32  85 S6        29.89R WCI  31

$$




USA.gov is the U.S. government's official web portal to all federal, state and local government web resources and services.